Wind_Speed
16 16 19 18 18 12 9 14 17 19 24 24 27 29 28 31 34 36 36 41 44 49 56 63 70 73 70 60 51 46 43 43 43 43 46 50 55 62 68 73 82 92 102 99 98 97 96
15 18 18 18 12 9 8 9 17 21 24 24 26 29 31 33 36 37 37 39 47 55 60 66 70 71 68 57 47 42 37 32 31 31 33 39 45 51 57 62 66 76 87 102 105 104 98
18 17 17 15 13 10 8 10 16 24 25 28 28 28 30 35 36 37 35 42 51 63 65 71 75 75 71 59 49 42 32 27 26 23 27 31 36 40 44 50 55 68 78 88 105 108 102
15 18 17 15 14 14 12 13 19 23 29 28 28 29 31 33 35 36 37 44 54 64 69 78 80 78 73 62 52 42 32 25 19 17 19 21 25 30 34 40 48 59 67 77 88 103 106
18 16 16 15 16 15 16 17 20 24 28 28 29 27 29 32 34 37 42 48 56 64 71 80 87 81 78 67 55 41 31 20 15 11 10 11 16 21 27 33 42 49 55 64 76 87 106
21 19 17 15 16 16 17 18 19 23 26 27 28 28 29 30 33 38 43 49 58 64 69 80 86 83 81 72 59 43 32 20 17 12 9 6 4 8 16 23 32 42 51 59 70 81 90
24 22 21 16 15 17 16 18 21 24 25 25 27 28 28 28 33 39 43 46 56 64 68 76 85 88 85 77 63 49 38 28 22 19 10 5 2 7 8 15 26 36 47 53 64 77 86
28 25 23 20 17 17 17 17 20 21 22 24 25 27 25 28 32 37 42 45 53 62 67 73 80 86 86 82 70 55 43 36 28 20 16 8 2 5 11 11 18 31 42 51 59 70 81
32 31 27 25 22 20 19 18 18 19 21 22 23 25 24 27 32 35 40 45 50 59 65 70 76 82 87 84 77 66 50 42 37 29 19 12 4 3 9 14 18 20 30 40 53 63 72
35 34 32 30 29 27 25 22 22 21 22 21 22 23 25 27 30 34 38 43 48 54 61 66 72 78 85 89 82 73 63 50 42 38 29 19 11 2 3 9 15 20 26 34 42 50 62
36 37 36 33 32 31 29 24 23 23 23 24 22 23 26 28 29 32 35 41 45 49 55 62 68 73 77 83 84 82 74 64 52 44 38 29 22 13 8 3 8 13 20 28 38 44 47
35 39 38 36 36 32 31 30 29 25 23 24 23 23 23 27 28 31 34 38 42 47 51 56 63 68 74 77 83 82 81 79 67 57 47 43 34 25 15 9 7 10 13 18 28 36 40
37 38 39 37 36 35 33 31 30 28 26 25 23 22 23 24 26 29 32 34 39 42 47 50 56 62 66 72 74 81 80 81 80 74 62 52 45 37 30 22 15 10 6 11 21 29 35
39 40 40 40 37 37 36 34 32 29 27 26 24 23 23 24 24 25 30 33 34 38 42 45 49 55 60 65 69 71 77 79 80 78 74 67 58 52 43 36 30 25 18 11 7 12 19
46 43 41 40 40 38 37 34 35 33 30 26 26 24 24 21 23 24 28 31 33 34 37 39 44 47 53 57 62 65 68 73 75 79 75 71 67 65 58 49 41 33 27 21 15 10 10
52 48 46 44 39 42 41 38 35 32 31 27 24 25 25 24 23 24 27 32 31 31 33 35 38 41 45 49 53 58 60 63 66 70 74 73 71 67 61 58 52 46 36 31 26 20 15
54 54 50 48 47 43 40 41 41 36 33 31 29 27 27 27 26 27 26 30 29 29 29 31 32 35 38 40 45 48 51 55 55 59 62 65 70 67 65 63 58 55 47 43 36 30 25
57 57 56 53 52 49 45 42 38 39 39 37 34 29 29 29 30 30 30 30 29 27 28 29 30 30 33 34 35 40 43 45 49 51 52 55 56 59 61 57 56 54 53 51 48 42 36
62 60 60 58 56 55 51 48 45 42 39 39 37 33 33 33 34 31 31 29 30 29 27 27 28 30 28 30 31 32 37 39 40 42 44 45 47 47 49 52 49 48 45 42 41 38 37
66 63 63 58 58 59 57 52 52 51 47 45 41 41 40 40 39 37 35 33 31 31 29 27 27 27 27 26 28 28 30 33 33 34 35 35 37 38 37 38 40 42 41 37 33 31 29
75 72 73 67 62 60 59 55 55 56 54 51 50 47 45 43 41 41 40 37 33 33 31 28 31 28 28 26 23 27 28 29 29 30 28 28 27 29 30 30 30 29 31 30 30 30 25
81 80 75 74 71 66 64 62 59 58 58 55 52 49 49 48 45 43 42 41 41 36 35 32 34 33 29 28 27 23 28 29 28 30 28 23 21 22 24 24 23 23 21 21 21 19 16
87 84 83 80 76 73 71 68 65 61 59 58 54 49 48 51 48 45 45 44 41 38 38 36 37 36 35 31 29 27 27 29 30 30 25 23 21 21 20 20 19 19 16 15 14 14 16
94 92 90 88 83 79 75 73 73 67 64 60 59 53 50 48 51 50 49 46 42 40 40 39 36 37 37 35 32 29 27 29 30 32 28 25 25 26 25 23 21 20 19 17 16 17 18
103 100 97 95 91 88 84 79 77 76 69 68 63 59 55 52 48 53 51 50 49 41 40 38 39 40 38 39 38 36 35 32 32 33 30 26 26 24 25 26 27 27 26 22 24 25 27
102 103 103 102 100 96 90 89 81 80 76 74 71 64 58 57 55 55 56 56 52 43 43 43 43 43 40 40 41 41 39 38 35 34 35 33 32 29 26 26 28 33 30 28 30 32 31
101 102 103 107 106 101 95 89 88 84 82 81 76 72 67 62 58 59 59 57 54 49 48 47 45 45 44 43 45 43 42 43 41 43 44 42 42 42 38 37 39 38 34 33 34 35 36
102 102 101 104 107 106 99 90 88 89 91 88 83 78 74 68 67 64 64 61 60 57 57 53 51 50 46 45 45 44 45 47 47 51 51 50 48 46 46 46 44 44 44 44 45 45 45
96 98 99 98 104 108 103 97 92 90 90 90 86 85 77 70 68 70 66 64 63 61 61 62 54 54 54 53 51 48 46 52 55 54 56 55 57 54 54 56 57 54 52 52 52 52 54
Wind_Direction
308 302 295 294 300 288 284 300 309 319 323 322 328 331 337 340 337 333 333 334 339 337 331 325 321 324 328 325 318 310 297 287 277 268 259 253 247 242 239 237 236 234 232 230 230 229 227
318 312 310 302 297 278 290 309 332 333 326 328 329 333 339 339 339 338 340 349 354 349 345 337 336 339 340 338 332 322 311 299 290 279 265 255 249 244 240 235 231 230 227 227 227 228 226
321 317 321 304 296 271 270 295 320 330 329 332 330 333 335 339 344 346 350 356 357 357 353 351 349 350 350 348 341 336 329 317 303 285 266 252 247 245 239 234 227 223 222 221 223 224 224
305 315 316 312 298 273 262 290 309 322 329 327 330 333 338 342 349 351 353 357 359 1 1 1 357 357 357 355 349 344 342 332 320 297 277 263 249 242 236 230 224 225 220 219 219 221 222
292 306 311 306 302 273 269 289 307 316 320 322 326 335 340 345 349 353 355 359 3 4 6 8 4 3 4 1 357 352 351 351 351 325 301 274 250 241 234 224 222 219 215 216 217 217 219
284 291 295 296 297 289 273 284 297 309 313 318 325 332 342 349 352 356 356 360 2 5 8 12 7 8 8 8 5 5 4 8 22 15 10 332 289 241 220 217 215 216 210 211 212 213 215
278 276 287 285 291 290 281 287 297 301 309 321 327 332 340 347 352 357 357 359 3 6 10 14 13 12 13 13 11 10 14 20 29 31 35 6 148 155 153 209 207 208 211 209 208 211 213
268 269 276 275 279 288 286 289 293 296 310 322 326 334 342 345 350 354 357 359 3 7 11 14 15 15 16 18 18 16 18 26 26 30 33 17 70 160 162 157 203 209 211 209 209 211 210
265 265 268 271 275 277 280 288 292 295 306 315 323 329 339 344 349 353 356 0 2 6 10 13 16 18 17 22 23 26 25 27 31 31 35 37 50 175 190 174 178 197 218 214 210 211 213
266 264 265 268 274 278 277 280 291 295 299 307 317 325 334 340 344 350 354 356 2 3 6 11 16 19 21 24 27 29 30 33 34 34 29 29 40 60 197 186 182 189 195 205 213 216 214
273 265 261 262 269 274 277 280 286 292 295 301 311 321 324 333 338 343 351 355 358 2 4 8 13 16 20 24 28 31 35 34 36 40 42 34 37 48 66 125 175 187 195 201 207 209 212
269 267 263 261 262 267 271 275 282 287 290 295 305 317 323 330 337 340 344 350 354 1 3 6 10 16 17 22 25 32 35 36 38 41 44 46 42 42 53 82 128 159 174 190 204 211 208
263 269 266 260 260 261 265 270 276 282 285 288 300 310 321 329 333 339 342 343 349 356 3 6 7 12 17 18 24 29 35 38 40 40 43 47 50 49 55 62 76 98 124 171 188 200 208
259 263 265 264 261 263 263 267 270 275 279 284 292 304 312 317 326 338 341 343 342 350 358 5 10 7 13 17 20 25 31 37 39 42 44 44 45 51 51 55 64 70 77 85 126 174 194
254 258 258 264 262 263 264 267 268 271 277 281 286 294 304 312 319 329 334 337 343 345 352 2 6 9 8 13 18 21 27 31 36 37 41 45 47 47 49 51 52 55 62 74 82 97 138
249 256 255 257 262 264 265 262 266 269 269 275 282 291 296 302 306 314 320 324 332 342 345 353 1 7 7 9 14 18 22 27 32 35 39 40 42 44 48 52 52 53 58 64 70 81 105
249 249 251 253 256 258 262 266 263 264 265 267 270 282 290 294 299 305 310 315 323 333 341 344 351 0 6 7 7 14 19 21 29 33 37 41 40 41 41 43 46 49 49 55 63 72 85
247 246 251 251 252 255 258 260 262 263 268 270 274 271 279 287 292 299 307 309 313 322 330 339 343 347 355 3 6 6 11 15 18 27 33 38 39 40 42 43 43 43 45 47 48 47 51
243 242 243 250 251 253 254 257 259 259 261 267 266 265 271 276 284 289 297 303 306 310 317 328 335 340 340 348 355 1 3 7 14 18 26 30 38 40 42 44 45 45 44 48 49 50 52
245 243 244 244 251 251 254 256 258 261 261 260 262 261 263 270 277 286 289 293 300 299 307 313 322 326 331 332 338 344 353 360 5 11 16 23 28 35 40 41 45 46 47 46 47 49 48
247 240 244 247 249 249 251 256 257 259 259 261 264 266 268 271 275 279 283 287 292 294 293 303 311 315 320 322 323 326 334 344 351 356 1 8 19 21 26 33 39 41 45 54 49 44 43
245 242 242 245 247 249 252 254 256 260 261 260 263 264 267 268 272 276 279 281 289 290 285 289 301 305 307 312 313 311 316 326 332 341 344 352 360 7 7 13 21 26 30 22 34 47 54
242 243 245 245 246 248 251 253 254 255 256 258 257 260 262 270 270 273 275 278 283 284 284 283 290 293 296 302 305 302 304 312 317 326 329 334 337 341 344 344 348 352 1 0 346 354 347
242 244 243 243 245 246 249 252 254 254 255 256 256 254 257 263 270 272 275 278 278 278 282 276 279 282 288 290 297 300 299 303 307 311 313 315 316 318 319 319 321 322 323 325 323 312 313
242 243 243 243 244 244 247 251 252 253 254 255 256 258 256 258 265 269 269 270 274 271 272 276 274 278 280 285 286 293 296 298 299 300 301 302 302 305 310 308 305 302 302 300 300 299 301
243 240 239 240 242 244 247 247 248 250 251 255 254 256 257 255 261 267 269 268 268 264 268 273 276 277 273 277 280 287 289 291 295 297 295 294 296 295 299 301 298 302 300 301 307 299 294
245 241 242 241 239 241 243 246 246 248 252 254 254 252 256 256 256 264 268 266 268 261 268 271 272 270 271 274 275 279 283 284 287 290 294 295 294 294 294 293 292 290 287 291 294 293 293
245 246 243 241 239 239 240 242 245 247 248 250 252 253 256 256 254 255 261 263 264 264 265 270 272 272 271 270 271 272 274 275 280 286 288 292 293 293 290 286 282 283 283 280 283 287 284
243 244 245 241 237 237 237 240 243 246 248 249 248 252 254 254 253 250 255 258 260 261 264 266 271 269 270 272 273 275 270 273 277 282 283 288 288 289 285 284 285 285 285 282 280 280 282
Height
10752 10749 10747 10746 10744 10744 10744 10743 10741 10737 10732 10727 10722 10717 10711 10704 10696 10689 10682 10673 10662 10649 10632 10611 10592 10571 10548 10524 10504 10489 10479 10470 10463 10461 10461 10461 10465 10470 10479 10490 10501 10520 10539 10559 10575 10587 10603
10750 10748 10745 10743 10742 10741 10741 10740 10737 10734 10729 10724 10719 10713 10707 10701 10693 10685 10677 10667 10654 10641 10621 10601 10580 10556 10531 10506 10489 10474 10463 10454 10448 10446 10445 10446 10448 10453 10462 10471 10485 10496 10511 10532 10547 10562 10586
10749 10746 10743 10740 10740 10739 10738 10736 10734 10731 10726 10721 10716 10711 10705 10698 10690 10681 10672 10661 10648 10633 10613 10591 10568 10542 10515 10494 10478 10464 10453 10444 10439 10435 10433 10434 10436 10440 10447 10455 10467 10474 10488 10504 10523 10541 10564
10746 10743 10740 10738 10736 10736 10735 10733 10731 10727 10723 10718 10713 10709 10702 10695 10688 10679 10668 10657 10643 10628 10608 10584 10557 10532 10510 10488 10471 10457 10446 10438 10431 10428 10426 10427 10429 10431 10436 10443 10451 10460 10477 10490 10506 10527 10545
10744 10741 10738 10735 10733 10731 10731 10730 10728 10725 10721 10715 10710 10706 10700 10693 10686 10676 10666 10654 10640 10624 10603 10580 10555 10531 10508 10487 10470 10455 10444 10434 10429 10425 10423 10423 10423 10425 10430 10436 10442 10451 10466 10480 10494 10512 10527
10741 10739 10736 10733 10730 10728 10728 10727 10725 10722 10718 10713 10708 10703 10697 10691 10684 10674 10664 10652 10639 10623 10605 10582 10563 10538 10512 10489 10470 10457 10447 10437 10430 10425 10423 10423 10423 10424 10427 10433 10439 10446 10455 10466 10482 10498 10513
10738 10736 10733 10730 10728 10726 10724 10723 10722 10719 10715 10711 10706 10701 10695 10689 10681 10673 10663 10652 10640 10624 10606 10588 10567 10543 10518 10495 10475 10461 10451 10442 10435 10430 10426 10424 10424 10423 10426 10431 10436 10443 10450 10461 10471 10482 10499
10734 10733 10730 10727 10725 10723 10721 10719 10718 10715 10712 10709 10704 10699 10693 10686 10680 10672 10662 10651 10640 10626 10609 10592 10576 10554 10530 10504 10483 10468 10455 10447 10440 10434 10431 10428 10427 10427 10428 10430 10435 10441 10446 10456 10467 10475 10487
10729 10728 10726 10724 10722 10719 10717 10716 10714 10712 10709 10706 10702 10697 10691 10684 10678 10671 10663 10653 10641 10629 10613 10598 10582 10563 10543 10517 10496 10479 10465 10454 10446 10442 10437 10433 10431 10430 10430 10431 10434 10440 10447 10455 10463 10471 10485
10721 10722 10721 10719 10717 10715 10713 10712 10710 10708 10705 10702 10698 10694 10688 10683 10677 10670 10662 10654 10643 10631 10618 10605 10588 10573 10555 10532 10513 10492 10478 10466 10455 10448 10444 10440 10436 10434 10433 10435 10436 10439 10444 10452 10461 10471 10481
10713 10714 10714 10713 10712 10710 10709 10708 10705 10703 10701 10698 10695 10690 10686 10681 10676 10669 10662 10654 10645 10635 10625 10612 10596 10581 10566 10550 10530 10508 10493 10479 10467 10458 10452 10450 10445 10442 10440 10441 10441 10442 10446 10451 10458 10467 10479
10705 10706 10706 10706 10706 10704 10703 10702 10701 10699 10697 10694 10690 10687 10683 10679 10674 10668 10661 10654 10646 10637 10628 10615 10604 10590 10575 10561 10546 10526 10509 10493 10481 10470 10462 10456 10454 10452 10448 10446 10447 10446 10450 10454 10459 10466 10476
10695 10697 10699 10699 10698 10698 10697 10696 10696 10694 10692 10690 10687 10683 10680 10676 10672 10667 10661 10654 10647 10640 10631 10621 10609 10598 10586 10572 10559 10544 10527 10513 10498 10486 10475 10470 10467 10465 10460 10458 10457 10456 10457 10459 10462 10467 10474
10685 10687 10689 10691 10690 10690 10690 10689 10689 10688 10686 10685 10683 10680 10676 10673 10669 10665 10660 10654 10648 10642 10634 10625 10615 10605 10594 10582 10571 10558 10545 10529 10518 10507 10497 10488 10481 10475 10473 10470 10468 10467 10467 10468 10469 10473 10479
10675 10676 10678 10680 10682 10682 10682 10683 10682 10681 10681 10679 10678 10675 10673 10670 10666 10662 10658 10653 10647 10642 10635 10628 10619 10611 10601 10592 10582 10570 10558 10547 10535 10524 10516 10508 10500 10492 10486 10483 10481 10479 10477 10478 10478 10481 10484
10665 10667 10668 10669 10670 10672 10674 10675 10675 10675 10674 10673 10672 10670 10668 10666 10663 10659 10655 10651 10646 10641 10636 10630 10623 10616 10608 10600 10591 10582 10572 10562 10552 10541 10531 10522 10515 10511 10505 10501 10498 10495 10493 10488 10489 10491 10494
10652 10655 10657 10658 10659 10660 10663 10666 10666 10667 10667 10666 10665 10664 10663 10661 10658 10655 10652 10648 10644 10640 10635 10630 10625 10619 10613 10606 10598 10591 10584 10575 10567 10558 10549 10540 10533 10527 10519 10513 10510 10508 10507 10504 10505 10506 10509
10638 10641 10645 10646 10647 10648 10651 10654 10656 10657 10659 10658 10658 10657 10656 10656 10654 10651 10648 10645 10642 10638 10634 10630 10625 10621 10616 10610 10604 10597 10591 10585 10578 10571 10564 10557 10550 10544 10538 10531 10527 10524 10522 10520 10519 10520 10521
10620 10624 10629 10633 10634 10637 10639 10642 10645 10647 10648 10649 10649 10649 10649 10648 10647 10646 10644 10641 10638 10635 10631 10628 10624 10621 10617 10612 10607 10602 10596 10591 10585 10580 10574 10569 10564 10559 10556 10551 10546 10542 10541 10540 10539 10540 10541
10603 10608 10612 10616 10620 10623 10626 10629 10632 10635 10637 10638 10639 10640 10640 10641 10640 10639 10638 10636 10634 10630 10628 10625 10622 10619 10616 10612 10608 10604 10600 10596 10591 10587 10582 10579 10574 10572 10569 10565 10562 10559 10556 10555 10555 10555 10556
10585 10591 10595 10601 10604 10608 10611 10615 10619 10620 10623 10626 10628 10630 10632 10632 10631 10632 10631 10629 10628 10626 10623 10621 10618 10616 10613 10611 10607 10604 10600 10598 10595 10592 10587 10584 10582 10579 10577 10575 10573 10571 10569 10566 10565 10565 10565
10563 10571 10578 10583 10587 10591 10596 10600 10604 10606 10609 10612 10615 10619 10621 10622 10622 10622 10622 10621 10621 10620 10618 10615 10613 10611 10609 10607 10604 10602 10599 10596 10594 10592 10590 10587 10585 10582 10581 10579 10579 10577 10576 10574 10573 10574 10574
10540 10547 10555 10562 10569 10574 10580 10585 10589 10591 10595 10598 10601 10606 10610 10611 10612 10612 10612 10613 10612 10611 10610 10609 10607 10605 10604 10602 10599 10598 10596 10593 10592 10590 10588 10587 10585 10583 10582 10580 10580 10579 10579 10578 10577 10577 10577
10517 10524 10532 10540 10547 10554 10561 10567 10573 10577 10581 10584 10587 10592 10596 10599 10599 10600 10601 10602 10602 10602 10601 10601 10600 10598 10597 10595 10594 10592 10591 10589 10587 10586 10585 10584 10582 10581 10581 10579 10578 10577 10577 10577 10576 10576 10576
10488 10497 10508 10517 10524 10532 10539 10547 10554 10560 10564 10569 10572 10577 10583 10586 10587 10586 10590 10589 10590 10591 10591 10591 10591 10590 10588 10588 10587 10585 10584 10583 10582 10580 10578 10578 10577 10576 10575 10573 10572 10572 10573 10573 10573 10572 10571
10458 10468 10480 10490 10499 10508 10516 10526 10534 10540 10546 10551 10557 10560 10567 10572 10571 10574 10575 10576 10578 10579 10579 10579 10580 10580 10579 10579 10578 10577 10575 10575 10575 10572 10570 10571 10570 10569 10569 10567 10564 10561 10563 10565 10565 10564 10564
10426 10439 10451 10464 10474 10482 10492 10503 10512 10519 10525 10531 10538 10543 10549 10555 10558 10560 10560 10562 10564 10566 10566 10567 10568 10567 10568 10569 10569 10568 10567 10566 10565 10563 10561 10561 10561 10560 10560 10558 10555 10553 10555 10555 10555 10554 10552
10398 10408 10423 10436 10447 10458 10469 10480 10489 10497 10502 10511 10518 10526 10533 10540 10540 10542 10545 10547 10549 10551 10552 10554 10555 10554 10555 10555 10556 10556 10557 10556 10555 10553 10550 10550 10550 10549 10548 10545 10544 10542 10543 10543 10544 10543 10541
10371 10384 10395 10407 10420 10431 10444 10457 10466 10473 10480 10489 10496 10503 10513 10518 10521 10523 10527 10530 10532 10534 10536 10538 10540 10540 10541 10541 10542 10544 10545 10544 10543 10543 10538 10539 10536 10536 10531 10529 10526 10530 10531 10529 10528 10527 10525